This is the latest recevied weather packets stored in our database for station/object WP3XM. If no packets are shown the sender has not sent any weather packets the latest 10 day(s).
| Time | Temp. | Humidity | Pressure | Rain* | Wind** | Luminosity | Snow |
|---|---|---|---|---|---|---|---|
| 1777902909 | 28.33° C | 75% | 1018.7 hPa | 0 mm | - | 904 W/m² | - |
| 1777902606 | 28.33° C | 75% | 1018.4 hPa | 0 mm | - | 902 W/m² | - |
| 1777902303 | 27.78° C | 76% | 1018.5 hPa | 0 mm | - | 841 W/m² | - |
| 1777902000 | 28.33° C | 77% | 1018.5 hPa | 0 mm | - | 345 W/m² | - |
| 1777901699 | 27.78° C | 77% | 1018.7 hPa | 0 mm | - | 817 W/m² | - |
| 1777901395 | 27.22° C | 77% | 1018.7 hPa | 0 mm | - | 701 W/m² | - |
| 1777901093 | 26.67° C | 80% | 1018.6 hPa | 0 mm | - | 400 W/m² | - |
| 1777900790 | 26.11° C | 86% | 1018.6 hPa | 0 mm | - | 305 W/m² | - |
| 1777900488 | 26.11° C | 86% | 1018.5 hPa | 3.05 mm | - | 181 W/m² | - |
| 1777900184 | 26.67° C | 84% | 1018.7 hPa | 1.78 mm | - | 167 W/m² | - |
| 1777899881 | 27.22° C | 84% | 1018.6 hPa | 0 mm | - | 174 W/m² | - |
| 1777899578 | 26.67° C | 85% | 1018.5 hPa | 0 mm | - | 288 W/m² | - |
| 1777899276 | 26.67° C | 87% | 1018.4 hPa | 0 mm | - | 671 W/m² | - |
| 1777898973 | 26.11° C | 87% | 1018.6 hPa | 1.27 mm | - | 416 W/m² | - |
| 1777898670 | 26.11° C | 87% | 1018.8 hPa | 1.27 mm | - | 185 W/m² | - |
| 1777898366 | 26.67° C | 84% | 1018.5 hPa | 0 mm | - | 224 W/m² | - |
| 1777898065 | 27.22° C | 81% | 1018.5 hPa | 0 mm | - | 96 W/m² | - |
| 1777897760 | 27.22° C | 80% | 1018.5 hPa | 0 mm | - | 122 W/m² | - |
| 1777897457 | 27.78° C | 79% | 1018.6 hPa | 0 mm | - | 160 W/m² | - |
| 1777897153 | 27.78° C | 78% | 1018.5 hPa | 0 mm | - | 195 W/m² | - |
| 1777896849 | 27.22° C | 81% | 1018.5 hPa | 0 mm | - | 563 W/m² | - |
| 1777896547 | 27.22° C | 81% | 1018.5 hPa | 0 mm | - | 462 W/m² | - |
| 1777896243 | 26.67° C | 81% | 1018.6 hPa | 0 mm | - | 148 W/m² | - |
| 1777895942 | 27.22° C | 80% | 1018.6 hPa | 0 mm | - | 132 W/m² | - |
| 1777895639 | 27.22° C | 80% | 1018.7 hPa | 0 mm | - | 112 W/m² | - |
* Rain latest hour (hover to see other rain measurements)
** Current wind speed in m/s (hover to see current wind gust speed)